This is the latest recevied weather packets stored in our database for station/object WI0K. If no packets are shown the sender has not sent any weather packets the latest 10 day(s).
| Time | Temp. | Humidity | Pressure | Rain* | Wind** | Luminosity | Snow |
|---|---|---|---|---|---|---|---|
| 1778159310 | 5.56° C | 49% | 1016.8 hPa | 0 mm | - | 150 W/m² | - |
| 1778159060 | 5.56° C | 49% | 1016.8 hPa | 0 mm | - | 150 W/m² | - |
| 1778159004 | 5.56° C | 51% | 1016.8 hPa | 0 mm | - | 140 W/m² | - |
| 1778158759 | 5.56° C | 51% | 1016.8 hPa | 0 mm | - | 140 W/m² | - |
| 1778158708 | 5.56° C | 51% | 1016.8 hPa | 0 mm | - | 123 W/m² | - |
| 1778158459 | 5.56° C | 51% | 1016.8 hPa | 0 mm | - | 123 W/m² | - |
| 1778158158 | 5° C | 51% | 1016.6 hPa | 0 mm | - | 105 W/m² | - |
| 1778157857 | 5° C | 51% | 1016.6 hPa | 0 mm | - | 90 W/m² | - |
| 1778157557 | 5° C | 52% | 1016.4 hPa | 0 mm | - | 79 W/m² | - |
| 1778157256 | 4.44° C | 52% | 1016.4 hPa | 0 mm | - | 49 W/m² | - |
| 1778156955 | 4.44° C | 53% | 1016.4 hPa | 0 mm | - | 33 W/m² | - |
| 1778156655 | 4.44° C | 53% | 1016.3 hPa | 0 mm | - | 30 W/m² | - |
| 1778156354 | 4.44° C | 52% | 1016.4 hPa | 0 mm | - | 30 W/m² | - |
| 1778156054 | 4.44° C | 52% | 1016.3 hPa | 0 mm | - | 26 W/m² | - |
| 1778155753 | 4.44° C | 53% | 1016.4 hPa | 0 mm | - | 14 W/m² | - |
| 1778155453 | 3.89° C | 53% | 1016.4 hPa | 0 mm | - | 12 W/m² | - |
| 1778155152 | 3.89° C | 54% | 1016.4 hPa | 0 mm | - | 8 W/m² | - |
| 1778155101 | 3.89° C | 54% | 1016.4 hPa | 0 mm | - | 3 W/m² | - |
| 1778154851 | 3.89° C | 54% | 1016.4 hPa | 0 mm | - | 3 W/m² | - |
| 1778154551 | 3.89° C | 54% | 1016.4 hPa | 0 mm | - | 3 W/m² | - |
| 1778154250 | 3.89° C | 56% | 1016.4 hPa | 0 mm | - | 2 W/m² | - |
| 1778153950 | 3.89° C | 54% | 1016.3 hPa | 0 mm | - | 0 W/m² | - |
| 1778153649 | 3.89° C | 54% | 1016.3 hPa | 0 mm | - | 0 W/m² | - |
| 1778153599 | 3.89° C | 56% | 1016.2 hPa | 0 mm | - | 0 W/m² | - |
| 1778153348 | 3.89° C | 56% | 1016.2 hPa | 0 mm | - | 0 W/m² | - |
* Rain latest hour (hover to see other rain measurements)
** Current wind speed in m/s (hover to see current wind gust speed)